| time (UTC) | temp C | wind direction | speed KPH | gust KPH | rain 1hr cm | rain 24hr cm | rain mn cm | humidity % | barometer mb |
| 20260905004606 | 18 | 212 | 3.2 | 14.5 | 0.00 | 0.74 | 0.03 | 76 | 1012.2 |
| 20260905004106 | 18 | 211 | 1.6 | 14.5 | 0.00 | 0.79 | 0.03 | 76 | 1012.2 |
| 20260905003605 | 19 | 214 | 4.8 | 12.9 | 0.00 | 0.84 | 0.03 | 75 | 1012.2 |
| 20260905003106 | 19 | 213 | 3.2 | 9.7 | 0.00 | 0.86 | 0.03 | 73 | 1012.1 |
| 20260905002605 | 19 | 211 | 1.6 | 12.9 | 0.00 | 0.86 | 0.03 | 74 | 1012.0 |
| 20260905002105 | 19 | 213 | 3.2 | 14.5 | 0.00 | 0.89 | 0.03 | 74 | 1012.0 |
| 20260905001605 | 19 | 214 | 4.8 | 14.5 | 0.00 | 0.89 | 0.03 | 74 | 1012.0 |
| 20260905001106 | 20 | 213 | 3.2 | 8.0 | 0.00 | 0.89 | 0.03 | 75 | 1011.9 |
| 20260905000605 | 20 | 213 | 3.2 | 8.0 | 0.00 | 0.89 | 0.03 | 75 | 1011.9 |
| 20260905000105 | 20 | 213 | 1.6 | 9.7 | 0.00 | 0.89 | 0.03 | 75 | 1011.8 |
| 20260904235604 | 20 | 213 | 3.2 | 9.7 | 0.00 | 0.89 | 0.03 | 75 | 1011.7 |
| 20260904235105 | 20 | 210 | 1.6 | 8.0 | 0.00 | 0.89 | 0.03 | 75 | 1011.7 |
| 20260904234104 | 20 | 213 | 1.6 | 4.8 | 0.00 | 0.89 | 0.03 | 74 | 1011.7 |
| 20260904233605 | 20 | 210 | 3.2 | 4.8 | 0.00 | 0.89 | 0.03 | 74 | 1011.6 |
| 20260904233104 | 20 | 213 | 1.6 | 4.8 | 0.00 | 0.89 | 0.03 | 74 | 1011.6 |
| 20260904232606 | 20 | 212 | 1.6 | 4.8 | 0.00 | 0.91 | 0.03 | 75 | 1011.7 |
| 20260904232104 | 20 | 211 | 1.6 | 14.5 | 0.00 | 0.94 | 0.03 | 75 | 1011.7 |
| 20260904231606 | 20 | 211 | 4.8 | 14.5 | 0.00 | 0.94 | 0.03 | 74 | 1011.6 |
| 20260904230106 | 21 | 209 | 3.2 | 8.0 | 0.00 | 0.94 | 0.03 | 72 | 1011.5 |
| 20260904225604 | 21 | 209 | 3.2 | 8.0 | 0.00 | 0.94 | 0.03 | 71 | 1011.6 |
| 20260904225105 | 21 | 212 | 3.2 | 4.8 | 0.00 | 0.94 | 0.03 | 72 | 1011.7 |
| 20260904224106 | 21 | 212 | 1.6 | 4.8 | 0.00 | 0.94 | 0.03 | 72 | 1011.6 |
| 20260904223105 | 21 | 210 | 1.6 | 3.2 | 0.00 | 0.97 | 0.03 | 69 | 1011.6 |
| 20260904222604 | 22 | 210 | 1.6 | 4.8 | 0.00 | 0.97 | 0.03 | 68 | 1011.5 |
| 20260904222104 | 22 | 210 | 1.6 | 4.8 | 0.00 | 0.97 | 0.03 | 68 | 1011.4 |
| 20260904221605 | 21 | 210 | 1.6 | 4.8 | 0.00 | 0.97 | 0.03 | 69 | 1011.4 |
| 20260904221106 | 21 | 212 | 1.6 | 4.8 | 0.00 | 0.97 | 0.03 | 69 | 1011.5 |
| 20260904220606 | 21 | 209 | 1.6 | 4.8 | 0.00 | 0.97 | 0.03 | 68 | 1011.5 |
| 20260904220104 | 21 | 211 | 1.6 | 8.0 | 0.00 | 0.97 | 0.03 | 68 | 1011.5 |
| 20260904215605 | 21 | 212 | 1.6 | 8.0 | 0.00 | 0.97 | 0.03 | 68 | 1011.4 |
| 20260904215104 | 21 | 211 | 1.6 | 8.0 | 0.00 | 0.97 | 0.03 | 68 | 1011.3 |
| 20260904213605 | 20 | 210 | 1.6 | 4.8 | 0.00 | 0.97 | 0.03 | 71 | 1011.4 |
| 20260904213105 | 20 | 210 | 1.6 | 4.8 | 0.00 | 0.97 | 0.03 | 70 | 1011.2 |
| 20260904212605 | 20 | 209 | 1.6 | 4.8 | 0.00 | 0.97 | 0.03 | 70 | 1011.2 |
| 20260904212104 | 20 | 212 | 3.2 | 4.8 | 0.00 | 0.97 | 0.03 | 69 | 1011.3 |
| 20260904210105 | 20 | 212 | 1.6 | 4.8 | 0.00 | 0.97 | 0.03 | 69 | 1011.4 |
| 20260904204605 | 21 | 195 | 1.6 | 8.0 | 0.00 | 0.97 | 0.03 | 63 | 1011.3 |
| 20260904203605 | 21 | 228 | 3.2 | 4.8 | 0.00 | 0.97 | 0.03 | 62 | 1011.2 |
| 20260904203104 | 21 | 216 | 1.6 | 4.8 | 0.00 | 0.97 | 0.03 | 62 | 1011.3 |
| 20260904202605 | 21 | 218 | 1.6 | 9.7 | 0.00 | 0.97 | 0.03 | 63 | 1011.2 |
| 20260904202104 | 21 | 195 | 4.8 | 9.7 | 0.00 | 0.97 | 0.03 | 63 | 1011.2 |
| 20260904201605 | 21 | 213 | 3.2 | 9.7 | 0.00 | 0.97 | 0.03 | 63 | 1011.2 |
| 20260904201104 | 21 | 212 | 1.6 | 9.7 | 0.00 | 0.97 | 0.03 | 66 | 1011.2 |
| 20260904200604 | 21 | 229 | 3.2 | 8.0 | 0.00 | 0.97 | 0.03 | 66 | 1011.2 |
| 20260904200104 | 21 | 219 | 3.2 | 9.7 | 0.00 | 0.97 | 0.03 | 67 | 1011.2 |
| 20260904195604 | 21 | 195 | 3.2 | 9.7 | 0.00 | 0.97 | 0.03 | 66 | 1011.1 |
| 20260904195105 | 21 | 211 | 1.6 | 4.8 | 0.00 | 0.97 | 0.03 | 68 | 1011.1 |
| 20260904194605 | 21 | 214 | 3.2 | 4.8 | 0.00 | 0.97 | 0.03 | 67 | 1011.2 |
| 20260904194104 | 20 | 226 | 3.2 | 8.0 | 0.00 | 0.97 | 0.03 | 70 | 1011.1 |
| 20260904193106 | 20 | 230 | 3.2 | 8.0 | 0.00 | 0.97 | 0.03 | 67 | 1011.0 |
| 20260904192605 | 20 | 209 | 3.2 | 12.9 | 0.00 | 0.97 | 0.03 | 67 | 1011.1 |
| 20260904192104 | 20 | 219 | 4.8 | 12.9 | 0.00 | 0.97 | 0.03 | 65 | 1011.1 |
| 20260904191604 | 20 | 221 | 3.2 | 8.0 | 0.00 | 0.97 | 0.03 | 68 | 1011.2 |
| 20260904190604 | 20 | 224 | 3.2 | 8.0 | 0.00 | 0.97 | 0.03 | 69 | 1011.4 |
| 20260904190105 | 20 | 195 | 1.6 | 4.8 | 0.00 | 0.97 | 0.03 | 71 | 1011.3 |
| 20260904185604 | 19 | 228 | 1.6 | 4.8 | 0.00 | 0.97 | 0.03 | 72 | 1011.3 |
| 20260904185104 | 19 | 228 | 1.6 | 9.7 | 0.00 | 0.97 | 0.03 | 72 | 1011.3 |
| 20260904184604 | 18 | 228 | 3.2 | 9.7 | 0.00 | 0.97 | 0.03 | 71 | 1011.3 |
| 20260904184104 | 18 | 213 | 3.2 | 4.8 | 0.00 | 0.97 | 0.03 | 73 | 1011.2 |
| 20260904183605 | 18 | 228 | 3.2 | 8.0 | 0.00 | 0.97 | 0.03 | 74 | 1011.2 |
| 20260904183106 | 18 | 224 | 3.2 | 9.7 | 0.00 | 0.97 | 0.03 | 73 | 1011.2 |
| 20260904182604 | 17 | 201 | 3.2 | 9.7 | 0.00 | 0.97 | 0.03 | 75 | 1011.2 |
| 20260904182105 | 17 | 219 | 0.0 | 4.8 | 0.00 | 0.97 | 0.03 | 74 | 1011.2 |
| 20260904181606 | 17 | 219 | 3.2 | 4.8 | 0.00 | 0.97 | 0.03 | 74 | 1011.2 |
| 20260904181105 | 17 | 226 | 1.6 | 8.0 | 0.00 | 0.97 | 0.03 | 74 | 1011.1 |
| 20260904180606 | 17 | 225 | 1.6 | 8.0 | 0.00 | 0.97 | 0.03 | 74 | 1011.1 |
| 20260904180106 | 17 | 207 | 1.6 | 8.0 | 0.00 | 0.97 | 0.03 | 75 | 1011.1 |
| 20260904175604 | 17 | 224 | 1.6 | 8.0 | 0.00 | 0.97 | 0.03 | 76 | 1011.0 |
| 20260904175105 | 17 | 218 | 1.6 | 8.0 | 0.00 | 0.97 | 0.03 | 77 | 1011.0 |
| 20260904174604 | 17 | 226 | 3.2 | 8.0 | 0.00 | 0.99 | 0.03 | 80 | 1011.0 |
| 20260904174106 | 17 | 224 | 3.2 | 8.0 | 0.00 | 0.99 | 0.03 | 81 | 1010.9 |
| 20260904173604 | 16 | 229 | 1.6 | 4.8 | 0.00 | 0.99 | 0.03 | 84 | 1010.9 |
| 20260904173105 | 16 | 218 | 1.6 | 8.0 | 0.00 | 0.99 | 0.03 | 86 | 1010.9 |
| 20260904172604 | 16 | 231 | 1.6 | 8.0 | 0.00 | 0.99 | 0.03 | 88 | 1010.9 |
| 20260904171604 | 15 | 217 | 1.6 | 4.8 | 0.00 | 1.02 | 0.03 | 90 | 1010.8 |
| 20260904170604 | 15 | 218 | 1.6 | 4.8 | 0.00 | 1.02 | 0.03 | 91 | 1010.8 |
| 20260904165604 | 15 | 217 | 1.6 | 4.8 | 0.00 | 1.02 | 0.03 | 91 | 1010.7 |
| 20260904165106 | 15 | 217 | 1.6 | 9.7 | 0.00 | 1.02 | 0.03 | 92 | 1010.7 |
| 20260904164604 | 15 | 217 | 1.6 | 9.7 | 0.00 | 1.02 | 0.03 | 92 | 1010.7 |
| 20260904163604 | 15 | 224 | 1.6 | 4.8 | 0.00 | 1.02 | 0.03 | 92 | 1010.8 |
| 20260904163103 | 14 | 224 | 0.0 | 3.2 | 0.00 | 1.02 | 0.03 | 92 | 1010.8 |
| 20260904162104 | 14 | 224 | 0.0 | 3.2 | 0.00 | 1.07 | 0.03 | 92 | 1010.8 |
| 20260904161104 | 14 | 224 | 0.0 | 4.8 | 0.00 | 1.09 | 0.03 | 92 | 1010.8 |
| 20260904160104 | 13 | 224 | 0.0 | 0.0 | 0.00 | 1.09 | 0.03 | 92 | 1010.8 |
| 20260904155606 | 13 | 224 | 0.0 | 1.6 | 0.00 | 1.09 | 0.03 | 92 | 1010.7 |
| 20260904155104 | 13 | 224 | 0.0 | 1.6 | 0.00 | 1.09 | 0.03 | 92 | 1010.8 |
| 20260904154604 | 13 | 224 | 0.0 | 0.0 | 0.00 | 1.09 | 0.03 | 92 | 1010.9 |
| 20260904154106 | 13 | 224 | 0.0 | 0.0 | 0.00 | 1.09 | 0.03 | 92 | 1010.8 |
| 20260904153606 | 12 | 224 | 0.0 | 1.6 | 0.00 | 1.09 | 0.03 | 92 | 1010.7 |
| 20260904153105 | 12 | 224 | 0.0 | 1.6 | 0.00 | 1.09 | 0.03 | 92 | 1010.7 |
| 20260904152604 | 12 | 224 | 0.0 | 0.0 | 0.00 | 1.09 | 0.03 | 92 | 1010.6 |
| 20260904151604 | 11 | 224 | 0.0 | 0.0 | 0.00 | 1.09 | 0.03 | 92 | 1010.3 |
| 20260904151106 | 11 | 224 | 0.0 | 0.0 | 0.00 | 1.09 | 0.03 | 92 | 1010.3 |
| 20260904150604 | 11 | 224 | 0.0 | 0.0 | 0.00 | 1.09 | 0.03 | 92 | 1010.3 |
| 20260904150105 | 10 | 224 | 0.0 | 0.0 | 0.00 | 1.09 | 0.03 | 92 | 1010.3 |
| 20260904145605 | 10 | 224 | 0.0 | 0.0 | 0.00 | 1.09 | 0.03 | 91 | 1010.3 |
| 20260904145104 | 9 | 224 | 0.0 | 0.0 | 0.00 | 1.09 | 0.03 | 91 | 1010.2 |
| 20260904144604 | 9 | 224 | 0.0 | 0.0 | 0.00 | 1.09 | 0.03 | 91 | 1010.2 |
| 20260904144107 | 8 | 224 | 0.0 | 0.0 | 0.00 | 1.09 | 0.03 | 90 | 1010.2 |
| 20260904143604 | 8 | 224 | 0.0 | 0.0 | 0.00 | 1.09 | 0.03 | 90 | 1010.2 |
| 20260904143104 | 8 | 224 | 0.0 | 0.0 | 0.00 | 1.09 | 0.03 | 90 | 1010.2 |
| 20260904142104 | 8 | 224 | 0.0 | 0.0 | 0.00 | 1.09 | 0.03 | 90 | 1010.1 |
| 20260904141604 | 8 | 224 | 0.0 | 0.0 | 0.00 | 1.09 | 0.03 | 90 | 1010.0 |
| 20260904141104 | 8 | 224 | 0.0 | 0.0 | 0.00 | 1.09 | 0.03 | 90 | 1009.9 |
| 20260904140605 | 8 | 224 | 0.0 | 0.0 | 0.00 | 1.09 | 0.03 | 90 | 1009.8 |
| 20260904135604 | 8 | 224 | 0.0 | 0.0 | 0.00 | 1.09 | 0.03 | 90 | 1009.7 |
| 20260904135104 | 8 | 224 | 0.0 | 0.0 | 0.00 | 1.09 | 0.03 | 90 | 1009.6 |
| 20260904134604 | 8 | 224 | 0.0 | 0.0 | 0.00 | 1.09 | 0.03 | 90 | 1009.5 |
| 20260904134105 | 8 | 224 | 0.0 | 0.0 | 0.00 | 1.09 | 0.03 | 90 | 1009.5 |
| 20260904133604 | 8 | 224 | 0.0 | 0.0 | 0.00 | 1.09 | 0.03 | 90 | 1009.4 |
| 20260904133104 | 8 | 224 | 0.0 | 0.0 | 0.00 | 1.09 | 0.03 | 90 | 1009.3 |
| 20260904131603 | 8 | 224 | 0.0 | 0.0 | 0.00 | 1.09 | 0.03 | 90 | 1009.2 |
| 20260904131104 | 8 | 224 | 0.0 | 0.0 | 0.00 | 1.09 | 0.03 | 90 | 1009.1 |
| 20260904130605 | 8 | 224 | 0.0 | 0.0 | 0.00 | 1.09 | 0.03 | 90 | 1009.0 |
| 20260904130104 | 8 | 224 | 0.0 | 0.0 | 0.00 | 1.09 | 0.03 | 90 | 1008.9 |
| 20260904125604 | 8 | 224 | 0.0 | 0.0 | 0.00 | 1.09 | 0.03 | 90 | 1008.9 |
| 20260904124604 | 8 | 224 | 0.0 | 0.0 | 0.00 | 1.09 | 0.03 | 90 | 1008.9 |
| 20260904124103 | 9 | 224 | 0.0 | 0.0 | 0.00 | 1.09 | 0.03 | 90 | 1009.0 |
| 20260904123106 | 9 | 224 | 0.0 | 0.0 | 0.00 | 1.12 | 0.03 | 90 | 1008.9 |
| 20260904122107 | 9 | 224 | 0.0 | 0.0 | 0.00 | 1.14 | 0.03 | 90 | 1009.0 |
| 20260904121606 | 9 | 224 | 0.0 | 0.0 | 0.00 | 1.17 | 0.03 | 90 | 1008.9 |
| 20260904121104 | 9 | 224 | 0.0 | 0.0 | 0.00 | 1.17 | 0.03 | 90 | 1008.9 |
| 20260904120606 | 9 | 224 | 0.0 | 0.0 | 0.00 | 1.17 | 0.03 | 90 | 1008.9 |
| 20260904115603 | 9 | 224 | 0.0 | 0.0 | 0.00 | 1.22 | 0.03 | 90 | 1008.9 |
| 20260904115104 | 9 | 224 | 0.0 | 0.0 | 0.00 | 1.27 | 0.03 | 90 | 1008.8 |
| 20260904114604 | 9 | 224 | 0.0 | 0.0 | 0.00 | 1.30 | 0.03 | 90 | 1008.8 |
| 20260904114105 | 10 | 224 | 0.0 | 0.0 | 0.00 | 1.32 | 0.03 | 90 | 1008.8 |
| 20260904113606 | 10 | 224 | 0.0 | 0.0 | 0.00 | 1.40 | 0.03 | 90 | 1008.8 |
| 20260904113104 | 10 | 224 | 0.0 | 0.0 | 0.00 | 1.47 | 0.03 | 90 | 1008.7 |
| 20260904112604 | 10 | 224 | 0.0 | 0.0 | 0.00 | 1.50 | 0.03 | 90 | 1008.6 |
| 20260904112104 | 10 | 224 | 0.0 | 0.0 | 0.00 | 1.50 | 0.03 | 90 | 1008.6 |
| 20260904111103 | 10 | 224 | 0.0 | 0.0 | 0.00 | 1.50 | 0.03 | 90 | 1008.5 |
| 20260904110604 | 10 | 224 | 0.0 | 0.0 | 0.00 | 1.50 | 0.03 | 90 | 1008.4 |
| 20260904105603 | 10 | 224 | 0.0 | 0.0 | 0.00 | 1.50 | 0.03 | 90 | 1008.4 |
| 20260904105103 | 10 | 224 | 0.0 | 0.0 | 0.00 | 1.50 | 0.03 | 90 | 1008.4 |
| 20260904104604 | 10 | 224 | 0.0 | 0.0 | 0.00 | 1.52 | 0.03 | 90 | 1008.5 |
| 20260904104103 | 10 | 224 | 0.0 | 0.0 | 0.00 | 1.52 | 0.03 | 90 | 1008.5 |
| 20260904102604 | 10 | 224 | 0.0 | 0.0 | 0.00 | 1.52 | 0.03 | 90 | 1008.4 |
| 20260904101604 | 10 | 224 | 0.0 | 0.0 | 0.00 | 1.55 | 0.03 | 89 | 1008.4 |
| 20260904100603 | 10 | 224 | 0.0 | 0.0 | 0.00 | 1.55 | 0.03 | 89 | 1008.4 |
| 20260904100104 | 10 | 224 | 0.0 | 0.0 | 0.00 | 1.55 | 0.03 | 89 | 1008.5 |
| 20260904095605 | 10 | 224 | 0.0 | 0.0 | 0.00 | 1.57 | 0.03 | 89 | 1008.6 |
| 20260904095104 | 10 | 224 | 0.0 | 0.0 | 0.03 | 1.57 | 0.03 | 89 | 1008.6 |
| 20260904094603 | 10 | 224 | 0.0 | 0.0 | 0.03 | 1.57 | 0.03 | 89 | 1008.6 |
| 20260904093605 | 10 | 224 | 0.0 | 0.0 | 0.03 | 1.60 | 0.03 | 89 | 1008.5 |
| 20260904093104 | 10 | 224 | 0.0 | 0.0 | 0.03 | 1.60 | 0.03 | 89 | 1008.5 |
| 20260904092604 | 10 | 224 | 0.0 | 0.0 | 0.03 | 1.60 | 0.03 | 89 | 1008.4 |
| 20260904092104 | 11 | 224 | 0.0 | 0.0 | 0.03 | 1.60 | 0.03 | 89 | 1008.4 |
| 20260904091603 | 11 | 224 | 0.0 | 0.0 | 0.03 | 1.60 | 0.03 | 89 | 1008.5 |
| 20260904091106 | 11 | 224 | 0.0 | 0.0 | 0.03 | 1.60 | 0.03 | 90 | 1008.5 |
| 20260904090606 | 11 | 224 | 0.0 | 0.0 | 0.03 | 1.68 | 0.03 | 89 | 1008.5 |
| 20260904090106 | 11 | 224 | 0.0 | 0.0 | 0.03 | 1.73 | 0.03 | 89 | 1008.5 |
| 20260904085605 | 11 | 224 | 0.0 | 0.0 | 0.03 | 1.78 | 0.03 | 89 | 1008.6 |
| 20260904084606 | 11 | 224 | 0.0 | 0.0 | 0.00 | 1.78 | 0.00 | 89 | 1008.5 |
| 20260904084105 | 11 | 224 | 0.0 | 0.0 | 0.00 | 1.78 | 0.00 | 89 | 1008.5 |
| 20260904083606 | 11 | 224 | 0.0 | 0.0 | 0.00 | 1.80 | 0.00 | 89 | 1008.5 |
| 20260904083105 | 11 | 224 | 0.0 | 0.0 | 0.00 | 1.80 | 0.00 | 89 | 1008.5 |
| 20260904082606 | 11 | 224 | 0.0 | 3.2 | 0.00 | 1.83 | 0.00 | 89 | 1008.5 |
| 20260904082105 | 11 | 224 | 0.0 | 3.2 | 0.00 | 1.85 | 0.00 | 89 | 1008.4 |
| 20260904081606 | 11 | 224 | 0.0 | 0.0 | 0.00 | 1.96 | 0.00 | 89 | 1008.4 |
| 20260904081105 | 11 | 224 | 0.0 | 0.0 | 0.00 | 2.01 | 0.00 | 89 | 1008.3 |
| 20260904080605 | 11 | 224 | 0.0 | 0.0 | 0.00 | 2.01 | 0.00 | 89 | 1008.2 |
| 20260904080106 | 11 | 224 | 0.0 | 0.0 | 0.00 | 2.01 | 0.00 | 89 | 1008.2 |
| 20260904075606 | 11 | 224 | 0.0 | 0.0 | 0.00 | 2.03 | 0.00 | 89 | 1008.2 |
| 20260904075107 | 11 | 224 | 0.0 | 0.0 | 0.00 | 2.06 | 0.00 | 89 | 1008.3 |
| 20260904074605 | 11 | 224 | 0.0 | 0.0 | 0.00 | 2.13 | 0.00 | 89 | 1008.2 |
| 20260904074106 | 11 | 224 | 0.0 | 0.0 | 0.00 | 2.21 | 0.00 | 89 | 1008.1 |
| 20260904073605 | 11 | 224 | 0.0 | 0.0 | 0.00 | 2.21 | 0.00 | 89 | 1008.1 |
| 20260904073106 | 11 | 224 | 0.0 | 0.0 | 0.00 | 2.21 | 0.00 | 89 | 1008.0 |
| 20260904072105 | 11 | 224 | 0.0 | 1.6 | 0.00 | 2.21 | 0.00 | 89 | 1008.0 |
| 20260904071606 | 11 | 224 | 0.0 | 1.6 | 0.00 | 2.21 | 0.00 | 89 | 1008.0 |
| 20260904071109 | 11 | 224 | 0.0 | 3.2 | 0.00 | 2.24 | 0.00 | 89 | 1008.0 |
| 20260904070605 | 11 | 224 | 0.0 | 3.2 | 0.00 | 2.29 | 0.00 | 89 | 1007.9 |
| 20260904070106 | 11 | 224 | 0.0 | 3.2 | 0.00 | 2.31 | 0.00 | 89 | 1007.9 |
| 20260904064606 | 11 | 224 | 0.0 | 0.0 | 0.00 | 2.46 | 2.31 | 89 | 1008.0 |
| 20260904064105 | 11 | 224 | 0.0 | 0.0 | 0.00 | 2.46 | 2.31 | 89 | 1008.0 |
| 20260904063605 | 11 | 224 | 0.0 | 0.0 | 0.00 | 2.46 | 2.31 | 89 | 1008.0 |
| 20260904063106 | 12 | 224 | 0.0 | 1.6 | 0.00 | 2.46 | 2.31 | 89 | 1008.0 |
| 20260904062606 | 12 | 224 | 0.0 | 3.2 | 0.00 | 2.46 | 2.31 | 89 | 1008.0 |
| 20260904062107 | 12 | 224 | 0.0 | 3.2 | 0.00 | 2.46 | 2.31 | 89 | 1008.0 |
| 20260904061606 | 11 | 224 | 0.0 | 1.6 | 0.00 | 2.46 | 2.31 | 88 | 1007.9 |
| 20260904060606 | 12 | 224 | 0.0 | 0.0 | 0.00 | 2.49 | 2.31 | 88 | 1008.1 |
| 20260904060106 | 12 | 224 | 0.0 | 1.6 | 0.00 | 2.51 | 2.31 | 88 | 1008.0 |
| 20260904055605 | 12 | 224 | 0.0 | 3.2 | 0.00 | 2.51 | 2.31 | 88 | 1008.0 |
| 20260904055106 | 12 | 224 | 0.0 | 3.2 | 0.00 | 2.51 | 2.31 | 88 | 1007.9 |
| 20260904054105 | 12 | 224 | 0.0 | 0.0 | 0.00 | 2.51 | 2.31 | 88 | 1008.0 |
| 20260904053605 | 12 | 224 | 0.0 | 0.0 | 0.00 | 2.51 | 2.31 | 88 | 1008.0 |
| 20260904053106 | 12 | 224 | 0.0 | 0.0 | 0.00 | 2.51 | 2.31 | 88 | 1008.0 |
| 20260904052605 | 12 | 224 | 0.0 | 0.0 | 0.00 | 2.51 | 2.31 | 88 | 1008.0 |
| 20260904051605 | 12 | 224 | 0.0 | 0.0 | 0.00 | 2.51 | 2.31 | 88 | 1008.0 |
| 20260904051105 | 12 | 224 | 0.0 | 0.0 | 0.00 | 2.51 | 2.31 | 88 | 1008.1 |
| 20260904050106 | 12 | 224 | 0.0 | 1.6 | 0.00 | 2.51 | 2.31 | 88 | 1008.1 |
| 20260904045605 | 12 | 224 | 0.0 | 1.6 | 0.00 | 2.51 | 2.31 | 88 | 1008.1 |
| 20260904045106 | 12 | 224 | 0.0 | 0.0 | 0.00 | 2.51 | 2.31 | 88 | 1008.1 |
| 20260904044605 | 12 | 224 | 0.0 | 1.6 | 0.00 | 2.51 | 2.31 | 88 | 1008.1 |
| 20260904044105 | 12 | 224 | 0.0 | 1.6 | 0.00 | 2.51 | 2.31 | 87 | 1008.1 |
| 20260904043606 | 12 | 224 | 0.0 | 1.6 | 0.00 | 2.51 | 2.31 | 87 | 1008.1 |
| 20260904043105 | 12 | 224 | 0.0 | 3.2 | 0.00 | 2.51 | 2.31 | 87 | 1008.1 |
| 20260904042605 | 12 | 224 | 0.0 | 3.2 | 0.00 | 2.51 | 2.31 | 87 | 1008.1 |
| 20260904042106 | 12 | 224 | 0.0 | 3.2 | 0.00 | 2.51 | 2.31 | 87 | 1008.1 |
| 20260904041606 | 12 | 224 | 0.0 | 0.0 | 0.00 | 2.51 | 2.31 | 86 | 1008.0 |
| 20260904041106 | 12 | 224 | 0.0 | 0.0 | 0.00 | 2.51 | 2.31 | 87 | 1008.0 |
| 20260904040605 | 12 | 224 | 0.0 | 0.0 | 0.00 | 2.51 | 2.31 | 86 | 1008.1 |
| 20260904040105 | 12 | 224 | 0.0 | 0.0 | 0.00 | 2.51 | 2.31 | 86 | 1008.0 |
| 20260904035105 | 12 | 224 | 0.0 | 0.0 | 0.00 | 2.51 | 2.31 | 86 | 1007.9 |
| 20260904034605 | 12 | 224 | 0.0 | 0.0 | 0.00 | 2.51 | 2.31 | 86 | 1007.8 |
| 20260904034105 | 12 | 224 | 0.0 | 0.0 | 0.00 | 2.51 | 2.31 | 86 | 1007.8 |
| 20260904033605 | 12 | 224 | 0.0 | 0.0 | 0.00 | 2.51 | 2.31 | 86 | 1007.7 |
| 20260904033105 | 13 | 224 | 0.0 | 0.0 | 0.00 | 2.51 | 2.31 | 86 | 1007.6 |
| 20260904032605 | 13 | 224 | 0.0 | 0.0 | 0.00 | 2.51 | 2.31 | 86 | 1007.6 |
| 20260904032107 | 13 | 224 | 0.0 | 0.0 | 0.00 | 2.51 | 2.31 | 86 | 1007.5 |
| 20260904031608 | 13 | 224 | 0.0 | 1.6 | 0.03 | 2.51 | 2.31 | 86 | 1007.5 |
| 20260904031105 | 13 | 224 | 0.0 | 1.6 | 0.03 | 2.51 | 2.31 | 86 | 1007.4 |
| 20260904030105 | 13 | 224 | 0.0 | 3.2 | 0.05 | 2.51 | 2.31 | 86 | 1007.4 |
| 20260904025606 | 13 | 224 | 0.0 | 3.2 | 0.08 | 2.51 | 2.31 | 86 | 1007.4 |
| 20260904025106 | 13 | 224 | 0.0 | 0.0 | 0.08 | 2.51 | 2.31 | 86 | 1007.4 |
| 20260904024605 | 13 | 224 | 0.0 | 0.0 | 0.10 | 2.51 | 2.31 | 86 | 1007.3 |
| 20260904024105 | 13 | 224 | 0.0 | 0.0 | 0.10 | 2.51 | 2.31 | 86 | 1007.2 |
| 20260904023605 | 13 | 224 | 0.0 | 0.0 | 0.13 | 2.51 | 2.31 | 86 | 1007.2 |
| 20260904023105 | 13 | 224 | 0.0 | 0.0 | 0.15 | 2.51 | 2.31 | 86 | 1007.2 |
| 20260904022606 | 13 | 224 | 0.0 | 0.0 | 0.18 | 2.51 | 2.31 | 85 | 1007.2 |
| 20260904022105 | 13 | 224 | 0.0 | 0.0 | 0.23 | 2.51 | 2.31 | 85 | 1007.2 |
| 20260904021605 | 13 | 224 | 0.0 | 0.0 | 0.28 | 2.49 | 2.29 | 85 | 1007.2 |
| 20260904020605 | 13 | 224 | 0.0 | 0.0 | 0.38 | 2.46 | 2.26 | 85 | 1007.1 |
| 20260904020104 | 14 | 224 | 0.0 | 0.0 | 0.43 | 2.46 | 2.26 | 85 | 1007.2 |
| 20260904015105 | 14 | 224 | 0.0 | 0.0 | 0.56 | 2.44 | 2.24 | 84 | 1007.3 |
| 20260904014607 | 14 | 224 | 0.0 | 0.0 | 0.61 | 2.41 | 2.21 | 84 | 1007.3 |
| 20260904014113 | 14 | 224 | 0.0 | 0.0 | 0.66 | 2.41 | 2.21 | 84 | 1007.4 |
| 20260904013105 | 14 | 224 | 0.0 | 0.0 | 0.69 | 2.36 | 2.16 | 83 | 1007.4 |
| 20260904012105 | 15 | 224 | 0.0 | 1.6 | 0.64 | 2.29 | 2.08 | 83 | 1007.5 |
| 20260904011634 | 15 | 250 | 0.0 | 0.0 | 0.56 | 2.21 | 2.01 | 83 | 1007.6 |
| 20260904011105 | 15 | 224 | 0.0 | 3.2 | 0.53 | 2.18 | 1.98 | 83 | 1007.5 |
| 20260904010605 | 15 | 224 | 0.0 | 3.2 | 0.46 | 2.11 | 1.91 | 82 | 1007.4 |
| 20260904005604 | 16 | 224 | 0.0 | 4.8 | 0.33 | 1.98 | 1.78 | 82 | 1007.3 |
| 20260904005106 | 16 | 224 | 0.0 | 1.6 | 0.25 | 1.91 | 1.70 | 82 | 1007.4 |